Location: Rometta
(44.2000°N, 10.0500°E)
Time: 17:29:38
(UTC+00:00)

Iridium 4 Rocket - Pass Details

Date: 20 January 2021
Orbit: 583 x 906 km, 86.9° (Epoch: 01 March)

Event Time Altitude Azimuth Distance (km) Brightness Sun altitude
Rises 18:39:19 0° 355° (N) 3,496 6.9 -25.8°
Reaches altitude 10° 18:41:50 10° 354° (N) 2,523 6.2 -26.3°
Maximum altitude 18:47:31 71° 271° (W) 872 3.8 -27.3°
Drops below altitude 10° 18:52:43 10° 188° (S) 2,317 6.1 -28.2°
Sets 18:54:57 0° 186° (S) 3,190 6.8 -28.6°
